Meteo Giornale » Osservazioni meteo India » Indore
ore: 15:30 - Osservazioni Meteo Indore
Lat. 22° 43' N Lon. 75° 48' E Alt. 561 metri s.l.m.
28 °C
Molto Nuvoloso
Temp. 24 Ore
23 °C
28 °C
Ovest
18.5 Km/h
Dew point 20 °C
Umidità 61 %
Visibilità 6 Km
Il sole sorge alle ore 06:09
Il sole tramonta alle ore 18:44
| Data e Ora | Cielo e Fenomeni | T °C | DP °C | Um. % | Pres. hPa | Vis. km | Vento km/h | |
|---|---|---|---|---|---|---|---|---|
| Oggi h: 15:30 | Molto Nuvoloso | 28 | 20 | 61 | 1009 | 6 | O 18.5 | |
| Oggi h: 15:00 | Molto Nuvoloso | 28 | 20 | 61 | 1009 | 6 | O 20.3 | |
| Oggi h: 14:30 | Molto Nuvoloso | 28 | 20 | 61 | 1010 | 6 | O/SO 20.3 | |
| Oggi h: 14:00 | Molto Nuvoloso | 28 | 20 | 61 | 1010 | 6 | O 18.5 | |
| Oggi h: 13:30 | Molto Nuvoloso | 28 | 20 | 61 | 1010 | 6 | O/SO 20.3 | |
| Oggi h: 13:00 | Molto Nuvoloso | 28 | 20 | 61 | 1010 | 6 | O 22.2 | |
| Oggi h: 12:00 | Molto Nuvoloso | 26 | 21 | 73 | 1011 | 6 | O 16.7 | |
| Oggi h: 11:30 | Molto Nuvoloso | 26 | 21 | 73 | 1012 | 6 | O/SO 20.3 | |
| Oggi h: 11:00 | Molto Nuvoloso | 26 | 21 | 73 | 1012 | 6 | O/SO 22.2 | |
| Oggi h: 10:30 | Molto Nuvoloso | 25 | 21 | 78 | 1011 | 6 | O 20.3 | |
| Oggi h: 10:00 | Molto Nuvoloso | 25 | 21 | 78 | 1011 | 6 | O 20.3 | |
| Oggi h: 09:30 | Foschia | 25 | 22 | 83 | 1011 | 5 | O/SO 18.5 | |
| Oggi h: 09:00 | Foschia | 24 | 21 | 83 | 1011 | 5 | O/SO 20.3 | |
| Oggi h: 08:30 | Foschia | 24 | 21 | 83 | 1011 | 5 | O/SO 18.5 | |
| Oggi h: 08:00 | Foschia | 24 | 21 | 83 | 1011 | 5 | O/SO 20.3 | |
| Oggi h: 07:30 | Foschia | 23 | 21 | 88 | 1010 | 5 | O/SO 16.7 | |
| Oggi h: 07:00 | Foschia | 23 | 21 | 88 | 1010 | 4 | O/SO 16.7 | |
| Oggi h: 06:30 | Foschia | 23 | 21 | 88 | 1009 | 4 | O/SO 14.8 | |
| Oggi h: 06:00 | Foschia | 23 | 22 | 94 | 1009 | 4 | O/SO 13 | |
| Oggi h: 05:30 | Foschia | 23 | 22 | 94 | 1009 | 4 | SO 13 | |
| Oggi h: 05:00 | Foschia | 23 | 22 | 94 | 1009 | 4 | O/SO 14.8 | |
| Oggi h: 04:30 | Foschia | 23 | 22 | 94 | 1009 | 4 | SO 13 | |
| Oggi h: 04:00 | Foschia | 23 | 22 | 94 | 1009 | 5 | SO 13 | |
| Oggi h: 03:30 | Foschia | 23 | 22 | 94 | 1008 | 5 | SO 16.7 | |
| Oggi h: 03:00 | Foschia | 23 | 22 | 94 | 1009 | 5 | SO 16.7 | |
| Oggi h: 02:30 | Foschia | 23 | 22 | 94 | 1009 | 5 | SO 14.8 | |
| Oggi h: 02:00 | Foschia | 23 | 21 | 88 | 1009 | 5 | SO 13 | |
| Oggi h: 01:30 | Foschia | 23 | 21 | 88 | 1010 | 5 | SO 13 | |
| Oggi h: 01:00 | Foschia | 23 | 21 | 88 | 1010 | 5 | SO 9.3 | |
| Oggi h: 00:30 | Foschia | 23 | 21 | 88 | 1010 | 5 | SO 9.3 | |
| Oggi h: 00:00 | Molto Nuvoloso | 24 | 21 | 83 | 1010 | 6 | O/SO 11.1 | |
| Ieri h: 23:30 | Nuvoloso | 23 | 21 | 88 | 1010 | 6 | SO 9.3 | |
| Ieri h: 23:00 | Nuvoloso | 23 | 21 | 88 | 1010 | 6 | N 0 | |
| Ieri h: 22:30 | Nuvoloso | 24 | 21 | 83 | 1010 | 6 | O/SO 7.4 | |
| Ieri h: 22:00 | Nuvoloso | 24 | 21 | 83 | 1010 | 6 | O/SO 9.3 | |
| Ieri h: 21:30 | Nuvoloso | 24 | 21 | 83 | 1010 | 6 | N 5.5 | |
| Ieri h: 21:00 | Nuvoloso | 24 | 21 | 83 | 1010 | 6 | O/SO 7.4 | |
| Ieri h: 20:30 | Nuvoloso | 24 | 21 | 83 | 1009 | 6 | O/SO 11.1 | |
| Ieri h: 20:00 | Nuvoloso | 25 | 21 | 78 | 1009 | 6 | O/SO 11.1 | |
| Ieri h: 19:30 | Nuvoloso | 25 | 21 | 78 | 1009 | 6 | O/SO 9.3 | |
| Ieri h: 19:00 | Nuvoloso | 26 | 21 | 73 | 1009 | 6 | O/SO 11.1 | |
| Ieri h: 18:30 | Nuvoloso | 26 | 21 | 73 | 1008 | 6 | O/SO 11.1 | |
| Ieri h: 18:00 | Molto Nuvoloso | 27 | 20 | 65 | 1008 | 6 | O/SO 18.5 | |
| Ieri h: 17:30 | Molto Nuvoloso | 27 | 20 | 65 | 1008 | 6 | O/SO 20.3 | |



